Tracking 28790 objects as of 18-Apr-2024
HD Live streaming from Space Station
objects crossing your sky now

CZ-4 DEB

Track CZ-4 DEB now!
10-day predictions


NORAD ID: 26756
Int'l Code: 1999-057MD
Perigee: 708.9 km
Apogee: 825.6 km
Inclination: 98.8 °
Period: 100.0 minutes
Semi major axis: 7138 km
RCS: 0.0134 m2 (small)
Launch date: October 14, 1999
Source: People's Republic of China (PRC)
Launch site: Taiyaun Space Center, China (TSC)

Note: This is SATELLITE DEBRIS
Your satellite tracking list
Your tracking list is empty




NASA's NSSDC Master Catalog

Two Line Element Set (TLE):
1 26756U 99057MD  24107.31192258  .00000941  00000-0  30516-3 0  9993
2 26756  98.7841 126.5156 0081767 274.1854  84.9991 14.39515859209978
Source of the keplerian elements: AFSPC